Location: Unspecified
(44.0704°N, 88.6889°W)
Time: 21:22:37
(UTC+02:00)

Altair - Pass Details

Date: 19 June 2019
Orbit: 1501 x 1683 km, 47.2° (Epoch: 24 August)

Event Time Altitude Azimuth Distance (km) Brightness Sun altitude
Rises 01:58:28 0° 177° (S) 4,673 9.8 15.6°
Reaches altitude 10° 02:03:03 10° 157° (SSE) 3,726 9.2 14.8°
Maximum altitude 02:08:12 16° 123° (ESE) 3,304 8.8 14.0°
Drops below altitude 10° 02:13:26 10° 90° (E) 3,815 9.1 13.1°
Sets 02:18:11 0° 71° (ENE) 4,842 9.7 12.3°
